CSZ648 EGLL-GCXO

Flight info

Callsign CSZ648
Flight time N/A
Altitude 35000
Route GOGSI N621 SAM M195 MARUK N621 LELNA
Aircraft A21N/M-SDE2E3FGHILRWXY/LB2

Departure

Time N/A
Airport London Heathrow Airport (EGLL)

Arrival

Time 2026-04-25 13:30
Airport Tenerife Norte-Ciudad de La Laguna Airport (GCXO)
Time Latitude Longitude Altitude Speed Heading
2026-04-25 13:17 28.53014 -16.45445 4950 ft 216 kts 343°
2026-04-25 13:17 28.54477 -16.45494 4956 ft 214 kts 15°
2026-04-25 13:17 28.55873 -16.44891 4976 ft 215 kts 24°
2026-04-25 13:18 28.57214 -16.44168 4973 ft 215 kts 25°
2026-04-25 13:18 28.58552 -16.43423 4971 ft 215 kts 26°
2026-04-25 13:18 28.59802 -16.42493 4948 ft 216 kts 46°
2026-04-25 13:18 28.60401 -16.40944 4943 ft 223 kts 83°
2026-04-25 13:19 28.60152 -16.39132 4905 ft 241 kts 113°
2026-04-25 13:19 28.59333 -16.37460 4949 ft 246 kts 118°
2026-04-25 13:19 28.58436 -16.35797 4961 ft 247 kts 119°
2026-04-25 13:19 28.58125 -16.35225 4963 ft 247 kts 119°
2026-04-25 13:20 28.56639 -16.32478 4968 ft 246 kts 119°
2026-04-25 13:20 28.55745 -16.30811 4969 ft 246 kts 119°
2026-04-25 13:20 28.54846 -16.29129 4970 ft 246 kts 118°
2026-04-25 13:20 28.54000 -16.27465 4970 ft 246 kts 115°
2026-04-25 13:21 28.53260 -16.25702 4970 ft 245 kts 110°
2026-04-25 13:21 28.52646 -16.23921 4970 ft 244 kts 108°
2026-04-25 13:21 28.52047 -16.22096 4970 ft 244 kts 108°
2026-04-25 13:21 28.51454 -16.20287 4970 ft 244 kts 108°
2026-04-25 13:22 28.50857 -16.18479 4970 ft 244 kts 108°
2026-04-25 13:22 28.50261 -16.16687 4959 ft 241 kts 108°
2026-04-25 13:22 28.49671 -16.14924 4879 ft 230 kts 108°
2026-04-25 13:23 28.48549 -16.11566 4975 ft 228 kts 108°
2026-04-25 13:23 28.47980 -16.09864 4911 ft 228 kts 108°
2026-04-25 13:23 28.47233 -16.08285 4855 ft 232 kts 134°
2026-04-25 13:23 28.45800 -16.07468 4852 ft 238 kts 175°
2026-04-25 13:24 28.44178 -16.07781 4882 ft 239 kts 203°
2026-04-25 13:24 28.42718 -16.08566 4957 ft 224 kts 208°
2026-04-25 13:24 28.41357 -16.09333 4894 ft 208 kts 208°
2026-04-25 13:24 28.40305 -16.10297 4805 ft 187 kts 245°
2026-04-25 13:25 28.40189 -16.11628 4673 ft 163 kts 296°
2026-04-25 13:25 28.40732 -16.12745 4641 ft 160 kts 307°
2026-04-25 13:25 28.41300 -16.13817 4606 ft 160 kts 303°
2026-04-25 13:25 28.41808 -16.14957 4592 ft 161 kts 300°
2026-04-25 13:26 28.42266 -16.16112 4609 ft 161 kts 297°
2026-04-25 13:26 28.42696 -16.17298 4615 ft 162 kts 296°
2026-04-25 13:26 28.43103 -16.18489 4530 ft 162 kts 295°
2026-04-25 13:26 28.43495 -16.19677 4433 ft 162 kts 295°
2026-04-25 13:27 28.43887 -16.20880 4214 ft 160 kts 295°
2026-04-25 13:27 28.44272 -16.22061 4005 ft 159 kts 295°
2026-04-25 13:27 28.44656 -16.23235 3796 ft 159 kts 295°
2026-04-25 13:27 28.45042 -16.24411 3587 ft 158 kts 295°
2026-04-25 13:28 28.45424 -16.25574 3380 ft 157 kts 295°
2026-04-25 13:28 28.45552 -16.25963 3310 ft 157 kts 295°
2026-04-25 13:28 28.46176 -16.27873 2989 ft 151 kts 295°
2026-04-25 13:28 28.46543 -16.28974 2740 ft 145 kts 295°
2026-04-25 13:29 28.46898 -16.30030 2560 ft 144 kts 295°
2026-04-25 13:29 28.47243 -16.31091 2390 ft 143 kts 295°
2026-04-25 13:29 28.47599 -16.32149 2206 ft 143 kts 295°
2026-04-25 13:30 28.48214 -16.33984 2085 ft 82 kts 293°
2026-04-25 13:30 28.48354 -16.34421 2085 ft 40 kts 291°
2026-04-25 13:30 28.48516 -16.34665 2085 ft 34 kts 314°
2026-04-25 13:31 28.48584 -16.34706 2085 ft 4 kts 121°
2026-04-25 13:31 28.48558 -16.34667 2085 ft 7 kts 126°
2026-04-25 13:31 28.48539 -16.34604 2085 ft 9 kts 67°
2026-04-25 13:31 28.48598 -16.34565 2085 ft 7 kts 21°
2026-04-25 13:32 28.48631 -16.34550 2085 ft 2 kts 21°
2026-04-25 13:32 28.48633 -16.34550 2085 ft 0 kts 21°
2026-04-25 13:32 28.48639 -16.34547 2085 ft 0 kts 20°